MDT,Max TemperatureF,Mean TemperatureF,Min TemperatureF,Max Dew PointF,MeanDew PointF,Min DewpointF,Max Humidity, Mean Humidity, Min Humidity, Max Sea Level PressureIn, Mean Sea Level PressureIn, Min Sea Level PressureIn, Max VisibilityMiles, Mean VisibilityMiles, Min VisibilityMiles, Max Wind SpeedMPH, Mean Wind SpeedMPH, Max Gust SpeedMPH,PrecipitationIn, CloudCover, Events, WindDirDegrees
2014-3-1,1,-3,-8,-4,-11,-16,83,74,64,30.51,30.26,30.08,10,4,0,13,8,16,0.13,8,Snow,56
2014-3-2,1,-6,-14,-7,-13,-19,81,73,64,30.48,30.37,30.14,10,10,7,14,3,15,0.00,4,,322
2014-3-3,43,22,0,29,14,-6,85,70,55,30.14,30.01,29.86,10,10,10,12,4,13,0.00,2,,180
2014-3-4,46,36,25,30,26,18,85,69,53,30.06,29.93,29.79,10,10,10,23,7,27,0.00,3,,267
2014-3-5,50,36,21,28,22,14,75,56,37,30.09,29.95,29.78,10,10,10,18,5,23,0.00,1,,180
2014-3-6,49,42,35,35,31,24,92,67,42,29.91,29.75,29.65,10,10,7,24,6,33,0.04,5,Rain,283
2014-3-7,44,36,28,33,29,27,100,81,62,30.25,30.04,29.87,10,5,0,18,3,21,0.01,7,Fog-Snow,340
2014-3-8,56,41,26,32,26,18,84,58,31,30.27,30.13,29.93,10,10,10,17,5,24,0.00,0,,170
2014-3-9,56,47,38,38,26,17,60,43,26,29.92,29.86,29.83,10,10,10,21,6,25,T,1,,224
2014-3-10,52,42,32,36,32,28,92,71,50,29.88,29.76,29.67,10,8,1,26,7,31,0.16,5,Rain-Snow,352
2014-3-11,36,26,16,31,25,8,100,75,50,30.43,30.19,29.88,10,6,0,24,13,29,0.35,4,Fog-Snow,304
2014-3-12,45,30,14,25,16,6,75,56,37,30.40,30.29,30.11,10,10,10,8,3,11,0.00,0,,228
2014-3-13,55,38,21,28,22,16,78,55,21,30.09,29.94,29.82,10,10,10,32,6,39,0.00,0,,285
2014-3-14,60,43,25,32,25,20,81,53,24,29.99,29.89,29.79,10,10,10,16,5,18,0.00,2,,29
2014-3-15,46,37,27,33,28,20,89,69,48,30.37,30.16,29.82,10,9,1,36,15,43,T,5,Snow,304
2014-3-16,64,45,25,30,22,17,84,51,17,30.27,30.02,29.68,10,10,10,18,6,23,0.00,1,,243
2014-3-17,58,45,32,35,28,14,92,56,19,29.79,29.49,29.26,10,6,0,35,18,42,0.33,5,Fog-Rain-Snow,305
2014-3-18,38,34,30,31,27,22,92,76,59,30.15,29.98,29.77,10,8,1,22,13,30,0.01,6,Snow,298
2014-3-19,41,30,19,29,20,13,77,61,44,30.16,30.05,29.94,10,10,10,15,5,23,0.00,1,,184
2014-3-20,53,43,32,28,20,14,70,48,26,30.04,29.89,29.73,10,10,10,28,13,33,0.00,4,,277
2014-3-21,33,26,19,25,20,15,92,70,47,30.43,30.25,30.04,10,7,1,26,15,33,0.06,8,Snow,333
2014-3-22,24,17,9,16,12,7,88,74,60,30.54,30.39,30.27,10,5,0,9,3,11,0.08,7,Fog-Snow,50
2014-3-23,35,22,9,27,18,4,83,70,56,30.40,30.25,30.08,10,9,2,25,8,30,T,5,Snow,315
2014-3-24,28,26,23,21,18,16,81,72,63,30.49,30.37,30.21,10,9,1,17,9,21,T,8,Snow,322
2014-3-25,56,37,18,33,22,14,84,61,38,30.45,30.00,29.59,10,10,10,12,4,15,0.00,2,,121
2014-3-26,54,44,34,33,28,19,85,58,31,29.57,29.48,29.38,10,10,10,23,9,27,0.00,3,,330
2014-3-27,38,35,31,33,29,27,92,78,64,29.81,29.68,29.55,10,5,0,25,10,31,0.29,7,Fog-Snow,47
2014-3-28,49,38,27,30,25,23,85,62,39,30.12,30.00,29.80,10,10,10,29,9,35,0.00,4,,272
2014-3-29,67,49,30,35,26,20,78,48,18,29.96,29.79,29.66,10,10,10,36,11,43,0.00,2,,258
2014-3-30,51,40,29,36,31,27,89,68,46,29.82,29.71,29.57,10,6,1,37,16,44,0.13,7,Rain-Snow,304
2014-3-31,32,27,22,27,21,18,92,78,63,30.19,30.03,29.79,10,5,0,36,12,43,0.10,5,Fog-Snow,310